Time,TemperatureF,DewpointF,PressureIn,WindDirection,WindDirectionDegrees,WindSpeedMPH,WindSpeedGustMPH,Humidity,HourlyPrecipIn,Conditions,Clouds,dailyrainin,SoftwareType,DateUTC
2013-03-03 00:01:00,39.8,27.9,30.02,SSW,197,0.0,0.0,62,0.00,,---,0.00,VWS V14.00,2013-03-03 07:01:00,
2013-03-03 00:07:00,39.7,27.8,30.01,SSW,197,0.0,0.0,62,0.00,,---,0.00,VWS V14.00,2013-03-03 07:07:00,
2013-03-03 00:13:00,39.6,27.7,30.01,SSW,197,0.0,0.0,62,0.00,,---,0.00,VWS V14.00,2013-03-03 07:13:00,
2013-03-03 00:18:00,39.5,27.6,30.01,SSW,197,0.0,0.0,62,0.00,,---,0.00,VWS V14.00,2013-03-03 07:18:00,
2013-03-03 00:24:00,39.5,27.6,30.00,SSW,197,0.0,0.0,62,0.00,,---,0.00,VWS V14.00,2013-03-03 07:24:00,
2013-03-03 00:29:00,39.4,27.5,30.01,SSW,197,0.0,0.0,62,0.00,,---,0.00,VWS V14.00,2013-03-03 07:29:00,
2013-03-03 00:34:00,39.3,27.4,30.01,SSW,197,0.0,0.0,62,0.00,,---,0.00,VWS V14.00,2013-03-03 07:34:00,
2013-03-03 00:39:00,39.4,27.5,30.00,SSW,197,0.0,0.0,62,0.00,,---,0.00,VWS V14.00,2013-03-03 07:39:00,
2013-03-03 00:44:00,39.4,27.5,30.00,SSW,197,0.0,1.0,62,0.00,,---,0.00,VWS V14.00,2013-03-03 07:44:00,
2013-03-03 00:49:00,39.5,27.6,30.00,SSW,196,0.0,0.0,62,0.00,,---,0.00,VWS V14.00,2013-03-03 07:49:00,
2013-03-03 00:54:00,39.5,27.6,29.99,SSW,197,0.0,0.0,62,0.00,,---,0.00,VWS V14.00,2013-03-03 07:54:00,
2013-03-03 00:59:00,39.5,27.6,29.99,SSW,197,0.0,1.0,62,0.00,,---,0.00,VWS V14.00,2013-03-03 07:59:00,
2013-03-03 01:04:00,39.5,28.0,29.97,SSW,197,0.0,0.0,63,0.00,,---,0.00,VWS V14.00,2013-03-03 08:04:00,
2013-03-03 01:09:00,39.4,27.5,29.96,SSW,196,0.0,0.0,62,0.00,,---,0.00,VWS V14.00,2013-03-03 08:09:00,
2013-03-03 01:14:00,39.4,27.5,29.97,SSW,197,0.0,0.0,62,0.00,,---,0.00,VWS V14.00,2013-03-03 08:14:00,
2013-03-03 01:19:00,39.4,27.5,29.97,SSW,197,0.0,0.0,62,0.00,,---,0.00,VWS V14.00,2013-03-03 08:19:00,
2013-03-03 01:24:00,39.3,27.4,29.96,SSW,197,0.0,0.0,62,0.00,,---,0.00,VWS V14.00,2013-03-03 08:24:00,
2013-03-03 01:29:00,39.2,27.3,29.96,SSW,196,0.0,0.0,62,0.00,,---,0.00,VWS V14.00,2013-03-03 08:29:00,
2013-03-03 01:34:00,39.2,27.3,29.95,SSW,197,0.0,0.0,62,0.00,,---,0.00,VWS V14.00,2013-03-03 08:34:00,
2013-03-03 01:39:00,39.1,27.2,29.95,SSW,197,0.0,0.0,62,0.00,,---,0.00,VWS V14.00,2013-03-03 08:39:00,
2013-03-03 01:44:00,39.1,27.6,29.95,SSW,196,0.0,0.0,63,0.00,,---,0.00,VWS V14.00,2013-03-03 08:44:00,
2013-03-03 01:49:00,39.1,27.6,29.94,SSW,197,0.0,0.0,63,0.00,,---,0.00,VWS V14.00,2013-03-03 08:49:00,
2013-03-03 01:54:00,39.1,27.6,29.94,SSW,197,0.0,0.0,63,0.00,,---,0.00,VWS V14.00,2013-03-03 08:54:00,
2013-03-03 01:59:00,39.1,27.6,29.93,SSW,197,0.0,2.0,63,0.00,,---,0.00,VWS V14.00,2013-03-03 08:59:00,
2013-03-03 02:04:00,39.1,27.6,29.92,SSW,196,0.0,0.0,63,0.00,,---,0.00,VWS V14.00,2013-03-03 09:04:00,
2013-03-03 02:09:00,39.0,27.5,29.92,SSW,197,0.0,0.0,63,0.00,,---,0.00,VWS V14.00,2013-03-03 09:09:00,
2013-03-03 02:14:00,39.0,27.5,29.91,SSW,197,0.0,0.0,63,0.00,,---,0.00,VWS V14.00,2013-03-03 09:14:00,
2013-03-03 02:19:00,39.0,27.5,29.90,SSW,196,0.0,0.0,63,0.00,,---,0.00,VWS V14.00,2013-03-03 09:19:00,
2013-03-03 02:24:00,39.0,27.5,29.90,SSW,196,0.0,0.0,63,0.00,,---,0.00,VWS V14.00,2013-03-03 09:24:00,
2013-03-03 02:29:00,38.9,27.4,29.90,SSW,197,0.0,0.0,63,0.00,,---,0.00,VWS V14.00,2013-03-03 09:29:00,
2013-03-03 02:34:00,38.9,27.4,29.89,SSW,197,0.0,0.0,63,0.00,,---,0.00,VWS V14.00,2013-03-03 09:34:00,
2013-03-03 02:39:00,38.8,27.3,29.89,SSW,197,0.0,0.0,63,0.00,,---,0.00,VWS V14.00,2013-03-03 09:39:00,
2013-03-03 02:44:00,38.7,27.2,29.89,SSW,197,0.0,0.0,63,0.00,,---,0.00,VWS V14.00,2013-03-03 09:44:00,
2013-03-03 02:49:00,38.6,27.1,29.89,SSW,197,0.0,0.0,63,0.00,,---,0.00,VWS V14.00,2013-03-03 09:49:00,
2013-03-03 02:54:00,38.5,27.0,29.88,SSW,196,0.0,0.0,63,0.00,,---,0.00,VWS V14.00,2013-03-03 09:54:00,
2013-03-03 02:59:00,38.4,26.9,29.89,SSW,196,0.0,0.0,63,0.00,,---,0.00,VWS V14.00,2013-03-03 09:59:00,
2013-03-03 03:04:00,38.3,26.8,29.89,SSW,197,0.0,0.0,63,0.00,,---,0.00,VWS V14.00,2013-03-03 10:04:00,
2013-03-03 03:09:00,38.2,26.7,29.88,SSW,197,0.0,0.0,63,0.00,,---,0.00,VWS V14.00,2013-03-03 10:09:00,
2013-03-03 03:14:00,38.1,27.0,29.88,SSW,197,0.0,0.0,64,0.00,,---,0.00,VWS V14.00,2013-03-03 10:14:00,
2013-03-03 03:19:00,38.0,26.9,29.88,SSW,196,0.0,0.0,64,0.00,,---,0.00,VWS V14.00,2013-03-03 10:19:00,
2013-03-03 03:24:00,38.0,26.9,29.87,SSW,197,0.0,0.0,64,0.00,,---,0.00,VWS V14.00,2013-03-03 10:24:00,
2013-03-03 03:29:00,38.0,26.9,29.87,SSW,196,0.0,0.0,64,0.00,,---,0.00,VWS V14.00,2013-03-03 10:29:00,
2013-03-03 03:34:00,37.9,26.8,29.87,SSW,196,0.0,0.0,64,0.00,,---,0.00,VWS V14.00,2013-03-03 10:34:00,
2013-03-03 03:39:00,37.9,26.8,29.86,SSW,197,0.0,0.0,64,0.00,,---,0.00,VWS V14.00,2013-03-03 10:39:00,
2013-03-03 03:44:00,37.9,26.5,29.87,SSW,197,0.0,0.0,63,0.00,,---,0.00,VWS V14.00,2013-03-03 10:44:00,
2013-03-03 03:49:00,37.9,26.1,29.87,SSW,197,0.0,0.0,62,0.00,,---,0.00,VWS V14.00,2013-03-03 10:49:00,
2013-03-03 03:54:00,38.1,25.9,29.87,SSW,196,0.0,0.0,61,0.00,,---,0.00,VWS V14.00,2013-03-03 10:54:00,
2013-03-03 03:59:00,38.1,25.5,29.86,SSW,197,0.0,0.0,60,0.00,,---,0.00,VWS V14.00,2013-03-03 10:59:00,
2013-03-03 04:04:00,38.2,25.5,29.88,SSW,197,0.0,0.0,60,0.00,,---,0.00,VWS V14.00,2013-03-03 11:04:00,
2013-03-03 04:09:00,38.2,25.5,29.88,SSW,196,0.0,0.0,60,0.00,,---,0.00,VWS V14.00,2013-03-03 11:09:00,
2013-03-03 04:14:00,38.2,25.5,29.87,SSW,196,0.0,0.0,60,0.00,,---,0.00,VWS V14.00,2013-03-03 11:14:00,
2013-03-03 04:19:00,38.2,25.1,29.87,SSW,197,0.0,0.0,59,0.00,,---,0.00,VWS V14.00,2013-03-03 11:19:00,
2013-03-03 04:24:00,38.1,25.1,29.87,SSW,197,0.0,0.0,59,0.00,,---,0.00,VWS V14.00,2013-03-03 11:24:00,
2013-03-03 04:29:00,38.0,25.4,29.88,SSW,197,0.0,0.0,60,0.00,,---,0.00,VWS V14.00,2013-03-03 11:29:00,
2013-03-03 04:34:00,37.9,25.3,29.87,SSW,196,1.0,1.0,60,0.00,,---,0.00,VWS V14.00,2013-03-03 11:34:00,
2013-03-03 04:40:00,37.8,25.2,29.87,SSW,196,0.0,0.0,60,0.00,,---,0.00,VWS V14.00,2013-03-03 11:40:00,
2013-03-03 04:45:00,37.8,24.8,29.87,SSW,197,0.0,0.0,59,0.00,,---,0.00,VWS V14.00,2013-03-03 11:45:00,
2013-03-03 04:51:00,37.7,25.1,29.86,SSW,197,0.0,0.0,60,0.00,,---,0.00,VWS V14.00,2013-03-03 11:51:00,
2013-03-03 04:56:00,37.7,24.7,29.86,SSW,196,0.0,0.0,59,0.00,,---,0.00,VWS V14.00,2013-03-03 11:56:00,
2013-03-03 05:01:00,37.7,25.1,29.86,SSW,197,0.0,2.0,60,0.00,,---,0.00,VWS V14.00,2013-03-03 12:01:00,
2013-03-03 05:06:00,37.6,24.6,29.88,SSW,197,0.0,0.0,59,0.00,,---,0.00,VWS V14.00,2013-03-03 12:06:00,
2013-03-03 05:11:00,37.6,24.2,29.88,SSW,197,0.0,0.0,58,0.00,,---,0.00,VWS V14.00,2013-03-03 12:11:00,
2013-03-03 05:16:00,37.6,24.2,29.88,SSW,196,0.0,0.0,58,0.00,,---,0.00,VWS V14.00,2013-03-03 12:16:00,
2013-03-03 05:21:00,37.7,23.9,29.87,SSW,192,1.0,5.0,57,0.00,,---,0.00,VWS V14.00,2013-03-03 12:21:00,
2013-03-03 05:26:00,38.6,23.4,29.88,SSW,192,0.0,0.0,54,0.00,,---,0.00,VWS V14.00,2013-03-03 12:26:00,
2013-03-03 05:31:00,39.6,23.0,29.86,South,191,0.0,2.0,51,0.00,,---,0.00,VWS V14.00,2013-03-03 12:31:00,
2013-03-03 05:36:00,40.3,23.1,29.86,South,187,0.0,0.0,50,0.00,,---,0.00,VWS V14.00,2013-03-03 12:36:00,
2013-03-03 05:41:00,40.7,23.0,29.86,South,188,0.0,0.0,49,0.00,,---,0.00,VWS V14.00,2013-03-03 12:41:00,
2013-03-03 05:46:00,40.7,23.5,29.86,South,188,0.0,0.0,50,0.00,,---,0.00,VWS V14.00,2013-03-03 12:46:00,
2013-03-03 05:51:00,40.6,23.0,29.86,South,188,0.0,0.0,49,0.00,,---,0.00,VWS V14.00,2013-03-03 12:51:00,
2013-03-03 05:56:00,40.7,22.5,29.86,South,191,0.0,0.0,48,0.00,,---,0.00,VWS V14.00,2013-03-03 12:56:00,
2013-03-03 06:01:00,40.6,22.5,29.86,South,190,0.0,0.0,48,0.00,,---,0.00,VWS V14.00,2013-03-03 13:01:00,
2013-03-03 06:06:00,40.5,22.9,29.87,South,190,0.0,0.0,49,0.00,,---,0.00,VWS V14.00,2013-03-03 13:06:00,
2013-03-03 06:11:00,40.3,22.7,29.87,South,190,0.0,0.0,49,0.00,,---,0.00,VWS V14.00,2013-03-03 13:11:00,
2013-03-03 06:16:00,40.2,22.6,29.86,South,190,0.0,0.0,49,0.00,,---,0.00,VWS V14.00,2013-03-03 13:16:00,
2013-03-03 06:21:00,40.1,22.0,29.86,SSW,193,0.0,2.0,48,0.00,,---,0.00,VWS V14.00,2013-03-03 13:21:00,
2013-03-03 06:26:00,40.3,21.7,29.86,SSW,199,3.0,4.0,47,0.00,,---,0.00,VWS V14.00,2013-03-03 13:26:00,
2013-03-03 06:31:00,41.1,21.9,29.86,South,184,0.0,3.0,46,0.00,,---,0.00,VWS V14.00,2013-03-03 13:31:00,
2013-03-03 06:36:00,41.6,21.3,29.85,South,182,0.0,2.0,44,0.00,,---,0.00,VWS V14.00,2013-03-03 13:36:00,
2013-03-03 06:41:00,41.7,21.4,29.85,SSW,207,3.0,4.0,44,0.00,,---,0.00,VWS V14.00,2013-03-03 13:41:00,
2013-03-03 06:46:00,42.1,21.8,29.85,SSW,197,0.0,2.0,44,0.00,,---,0.00,VWS V14.00,2013-03-03 13:46:00,
2013-03-03 06:51:00,42.4,21.5,29.84,SSW,195,0.0,1.0,43,0.00,,---,0.00,VWS V14.00,2013-03-03 13:51:00,
2013-03-03 06:56:00,42.6,21.7,29.84,SSW,192,3.0,4.0,43,0.00,,---,0.00,VWS V14.00,2013-03-03 13:56:00,
2013-03-03 07:01:00,43.2,21.7,29.84,SSW,192,2.0,4.0,42,0.00,,---,0.00,VWS V14.00,2013-03-03 14:01:00,
2013-03-03 07:06:00,43.7,21.6,29.86,South,191,0.0,0.0,41,0.00,,---,0.00,VWS V14.00,2013-03-03 14:06:00,
2013-03-03 07:11:00,43.9,21.7,29.86,SSW,192,0.0,0.0,41,0.00,,---,0.00,VWS V14.00,2013-03-03 14:11:00,
2013-03-03 07:16:00,43.9,21.7,29.86,SSW,192,0.0,1.0,41,0.00,,---,0.00,VWS V14.00,2013-03-03 14:16:00,
2013-03-03 07:21:00,43.9,21.7,29.86,SSW,192,0.0,1.0,41,0.00,,---,0.00,VWS V14.00,2013-03-03 14:21:00,
2013-03-03 07:26:00,44.4,21.6,29.87,SSW,200,1.0,2.0,40,0.00,,---,0.00,VWS V14.00,2013-03-03 14:26:00,
2013-03-03 07:31:00,45.6,22.1,29.86,SSW,202,0.0,2.0,39,0.00,,---,0.00,VWS V14.00,2013-03-03 14:31:00,
2013-03-03 07:37:00,46.3,22.1,29.85,SSW,205,2.0,6.0,38,0.00,,---,0.00,VWS V14.00,2013-03-03 14:37:00,
2013-03-03 07:42:00,46.4,22.2,29.85,SSW,204,0.0,3.0,38,0.00,,---,0.00,VWS V14.00,2013-03-03 14:42:00,
2013-03-03 07:47:00,46.1,22.5,29.85,SSW,200,0.0,1.0,39,0.00,,---,0.00,VWS V14.00,2013-03-03 14:47:00,
2013-03-03 07:52:00,46.0,22.5,29.85,SSW,211,4.0,5.0,39,0.00,,---,0.00,VWS V14.00,2013-03-03 14:52:00,
2013-03-03 07:57:00,45.8,22.9,29.85,South,174,0.0,1.0,40,0.00,,---,0.00,VWS V14.00,2013-03-03 14:57:00,
2013-03-03 08:02:00,45.6,22.7,29.85,South,189,0.0,0.0,40,0.00,,---,0.00,VWS V14.00,2013-03-03 15:02:00,
2013-03-03 08:07:00,45.6,22.7,29.87,South,188,0.0,0.0,40,0.00,,---,0.00,VWS V14.00,2013-03-03 15:07:00,
2013-03-03 08:12:00,45.7,23.4,29.87,South,190,0.0,0.0,41,0.00,,---,0.00,VWS V14.00,2013-03-03 15:12:00,
2013-03-03 08:17:00,45.9,23.0,29.87,South,189,0.0,1.0,40,0.00,,---,0.00,VWS V14.00,2013-03-03 15:17:00,
2013-03-03 08:22:00,46.1,23.7,29.87,South,188,0.0,0.0,41,0.00,,---,0.00,VWS V14.00,2013-03-03 15:22:00,
2013-03-03 08:28:00,46.6,23.0,29.86,South,188,0.0,0.0,39,0.00,,---,0.00,VWS V14.00,2013-03-03 15:28:00,
2013-03-03 08:33:00,46.7,24.8,29.85,South,189,0.0,0.0,42,0.00,,---,0.00,VWS V14.00,2013-03-03 15:33:00,
2013-03-03 08:38:00,46.8,24.4,29.85,South,189,0.0,0.0,41,0.00,,---,0.00,VWS V14.00,2013-03-03 15:38:00,
2013-03-03 08:44:00,47.0,24.0,29.85,South,190,0.0,0.0,40,0.00,,---,0.00,VWS V14.00,2013-03-03 15:44:00,
2013-03-03 08:50:00,47.1,24.0,29.85,South,188,0.0,0.0,40,0.00,,---,0.00,VWS V14.00,2013-03-03 15:50:00,
2013-03-03 08:55:00,47.7,23.4,29.85,South,188,0.0,0.0,38,0.00,,---,0.00,VWS V14.00,2013-03-03 15:55:00,
2013-03-03 09:01:00,48.5,24.7,29.83,South,189,0.0,0.0,39,0.00,,---,0.00,VWS V14.00,2013-03-03 16:01:00,
2013-03-03 09:07:00,48.7,23.6,29.84,South,190,0.0,0.0,37,0.00,,---,0.00,VWS V14.00,2013-03-03 16:07:00,
2013-03-03 09:13:00,48.7,23.6,29.84,SSE,167,1.0,6.0,37,0.00,,---,0.00,VWS V14.00,2013-03-03 16:13:00,
2013-03-03 09:18:00,48.7,24.2,29.83,South,181,0.0,1.0,38,0.00,,---,0.00,VWS V14.00,2013-03-03 16:18:00,
2013-03-03 09:23:00,49.2,24.1,29.83,South,186,0.0,5.0,37,0.00,,---,0.00,VWS V14.00,2013-03-03 16:23:00,
2013-03-03 09:28:00,49.8,23.9,29.83,SW,230,3.0,4.0,36,0.00,,---,0.00,VWS V14.00,2013-03-03 16:28:00,
2013-03-03 09:33:00,50.5,23.9,29.81,SSW,207,0.0,5.0,35,0.00,,---,0.00,VWS V14.00,2013-03-03 16:33:00,
2013-03-03 09:39:00,50.8,24.1,29.81,South,173,1.0,6.0,35,0.00,,---,0.00,VWS V14.00,2013-03-03 16:39:00,
2013-03-03 09:44:00,50.9,24.2,29.80,SSW,200,0.0,1.0,35,0.00,,---,0.00,VWS V14.00,2013-03-03 16:44:00,
2013-03-03 09:50:00,51.8,24.3,29.80,SSW,200,0.0,1.0,34,0.00,,---,0.00,VWS V14.00,2013-03-03 16:50:00,
2013-03-03 09:56:00,52.8,24.5,29.79,SSW,200,0.0,1.0,33,0.00,,---,0.00,VWS V14.00,2013-03-03 16:56:00,
2013-03-03 10:01:00,53.2,24.1,29.78,SSW,202,2.0,2.0,32,0.00,,---,0.00,VWS V14.00,2013-03-03 17:01:00,
2013-03-03 10:07:00,53.7,24.6,29.79,SSW,202,0.0,0.0,32,0.00,,---,0.00,VWS V14.00,2013-03-03 17:07:00,
2013-03-03 10:12:00,54.4,25.2,29.78,SSW,200,0.0,1.0,32,0.00,,---,0.00,VWS V14.00,2013-03-03 17:12:00,
2013-03-03 10:17:00,55.1,26.5,29.77,SSW,206,0.0,1.0,33,0.00,,---,0.00,VWS V14.00,2013-03-03 17:17:00,
2013-03-03 10:22:00,55.8,25.6,29.77,SSW,200,1.0,3.0,31,0.00,,---,0.00,VWS V14.00,2013-03-03 17:22:00,
2013-03-03 10:27:00,56.4,24.6,29.75,SSW,200,1.0,2.0,29,0.00,,---,0.00,VWS V14.00,2013-03-03 17:27:00,
2013-03-03 10:32:00,56.2,25.2,29.76,SSW,200,0.0,0.0,30,0.00,,---,0.00,VWS V14.00,2013-03-03 17:32:00,
2013-03-03 10:37:00,56.4,25.4,29.76,SSW,199,0.0,0.0,30,0.00,,---,0.00,VWS V14.00,2013-03-03 17:37:00,
2013-03-03 10:42:00,56.7,24.8,29.75,SSW,200,0.0,0.0,29,0.00,,---,0.00,VWS V14.00,2013-03-03 17:42:00,
2013-03-03 10:47:00,56.8,24.9,29.75,SSW,200,2.0,2.0,29,0.00,,---,0.00,VWS V14.00,2013-03-03 17:47:00,
2013-03-03 10:52:00,57.2,24.4,29.75,SSW,200,2.0,2.0,28,0.00,,---,0.00,VWS V14.00,2013-03-03 17:52:00,
2013-03-03 10:57:00,58.5,24.7,29.75,WSW,241,0.0,4.0,27,0.00,,---,0.00,VWS V14.00,2013-03-03 17:57:00,
2013-03-03 11:02:00,58.6,25.6,29.73,SW,236,0.0,0.0,28,0.00,,---,0.00,VWS V14.00,2013-03-03 18:02:00,
2013-03-03 11:07:00,59.0,25.1,29.74,SW,236,0.0,2.0,27,0.00,,---,0.00,VWS V14.00,2013-03-03 18:07:00,
2013-03-03 11:12:00,58.6,26.5,29.74,SW,236,0.0,1.0,29,0.00,,---,0.00,VWS V14.00,2013-03-03 18:12:00,
2013-03-03 11:17:00,58.8,25.8,29.74,SW,236,0.0,0.0,28,0.00,,---,0.00,VWS V14.00,2013-03-03 18:17:00,
2013-03-03 11:22:00,59.0,26.0,29.74,SW,236,0.0,1.0,28,0.00,,---,0.00,VWS V14.00,2013-03-03 18:22:00,
2013-03-03 11:27:00,59.0,26.0,29.73,SW,236,0.0,0.0,28,0.00,,---,0.00,VWS V14.00,2013-03-03 18:27:00,
2013-03-03 11:32:00,59.1,27.7,29.72,SW,236,0.0,1.0,30,0.00,,---,0.00,VWS V14.00,2013-03-03 18:32:00,
2013-03-03 11:37:00,59.5,26.4,29.72,SW,236,0.0,1.0,28,0.00,,---,0.00,VWS V14.00,2013-03-03 18:37:00,
2013-03-03 11:42:00,59.7,25.7,29.71,SW,235,1.0,3.0,27,0.00,,---,0.00,VWS V14.00,2013-03-03 18:42:00,
2013-03-03 11:47:00,59.7,26.6,29.70,South,188,0.0,1.0,28,0.00,,---,0.00,VWS V14.00,2013-03-03 18:47:00,
2013-03-03 11:52:00,60.1,27.8,29.70,South,189,0.0,0.0,29,0.00,,---,0.00,VWS V14.00,2013-03-03 18:52:00,
2013-03-03 11:57:00,60.2,26.1,29.69,SSE,147,0.0,1.0,27,0.00,,---,0.00,VWS V14.00,2013-03-03 18:57:00,
2013-03-03 12:02:00,60.0,27.7,29.69,SSE,147,0.0,0.0,29,0.00,,---,0.00,VWS V14.00,2013-03-03 19:02:00,
2013-03-03 12:07:00,59.5,26.4,29.70,SSE,147,0.0,1.0,28,0.00,,---,0.00,VWS V14.00,2013-03-03 19:07:00,
2013-03-03 12:12:00,59.5,26.4,29.70,SSE,147,1.0,2.0,28,0.00,,---,0.00,VWS V14.00,2013-03-03 19:12:00,
2013-03-03 12:17:00,59.5,26.4,29.69,SSE,150,0.0,0.0,28,0.00,,---,0.00,VWS V14.00,2013-03-03 19:17:00,
2013-03-03 12:22:00,59.8,27.5,29.68,SSE,150,0.0,1.0,29,0.00,,---,0.00,VWS V14.00,2013-03-03 19:22:00,
2013-03-03 12:27:00,60.4,27.2,29.68,SSE,150,0.0,1.0,28,0.00,,---,0.00,VWS V14.00,2013-03-03 19:27:00,
2013-03-03 12:32:00,60.5,26.4,29.68,SE,146,1.0,1.0,27,0.00,,---,0.00,VWS V14.00,2013-03-03 19:32:00,
2013-03-03 12:37:00,61.0,27.7,29.66,SSE,148,0.0,1.0,28,0.00,,---,0.00,VWS V14.00,2013-03-03 19:37:00,
2013-03-03 12:42:00,61.3,27.9,29.66,SE,145,0.0,3.0,28,0.00,,---,0.00,VWS V14.00,2013-03-03 19:42:00,
2013-03-03 12:48:00,61.5,28.1,29.65,SE,142,0.0,1.0,28,0.00,,---,0.00,VWS V14.00,2013-03-03 19:48:00,
2013-03-03 12:53:00,61.8,26.6,29.65,SE,142,2.0,2.0,26,0.00,,---,0.00,VWS V14.00,2013-03-03 19:53:00,
2013-03-03 12:59:00,61.6,26.4,29.65,SSE,158,0.0,1.0,26,0.00,,---,0.00,VWS V14.00,2013-03-03 19:59:00,
2013-03-03 13:04:00,61.8,26.6,29.65,SSE,158,0.0,0.0,26,0.00,,---,0.00,VWS V14.00,2013-03-03 20:04:00,
2013-03-03 13:09:00,61.9,25.7,29.64,SSE,165,2.0,2.0,25,0.00,,---,0.00,VWS V14.00,2013-03-03 20:09:00,
2013-03-03 13:14:00,62.4,28.0,29.63,SSE,166,0.0,0.0,27,0.00,,---,0.00,VWS V14.00,2013-03-03 20:14:00,
2013-03-03 13:19:00,62.5,28.1,29.63,SE,131,1.0,3.0,27,0.00,,---,0.00,VWS V14.00,2013-03-03 20:19:00,
2013-03-03 13:25:00,62.1,25.9,29.63,ESE,109,0.0,1.0,25,0.00,,---,0.00,VWS V14.00,2013-03-03 20:25:00,
2013-03-03 13:30:00,63.1,26.7,29.62,ESE,114,3.0,4.0,25,0.00,,---,0.00,VWS V14.00,2013-03-03 20:30:00,
2013-03-03 13:35:00,63.1,26.7,29.62,ESE,121,0.0,1.0,25,0.00,,---,0.00,VWS V14.00,2013-03-03 20:35:00,
2013-03-03 13:40:00,64.1,27.6,29.61,ESE,123,3.0,4.0,25,0.00,,---,0.00,VWS V14.00,2013-03-03 20:40:00,
2013-03-03 13:45:00,63.4,26.0,29.61,ESE,123,0.0,1.0,24,0.00,,---,0.00,VWS V14.00,2013-03-03 20:45:00,
2013-03-03 13:50:00,63.5,29.8,29.61,ESE,122,0.0,4.0,28,0.00,,---,0.00,VWS V14.00,2013-03-03 20:50:00,
2013-03-03 13:55:00,63.8,27.3,29.61,ESE,120,0.0,6.0,25,0.00,,---,0.00,VWS V14.00,2013-03-03 20:55:00,
2013-03-03 14:00:00,63.9,28.4,29.61,SE,134,0.0,3.0,26,0.00,,---,0.00,VWS V14.00,2013-03-03 21:00:00,
2013-03-03 14:05:00,63.2,24.8,29.61,East,91,1.0,2.0,23,0.00,,---,0.00,VWS V14.00,2013-03-03 21:05:00,
2013-03-03 14:10:00,64.3,27.8,29.59,ESE,119,0.0,5.0,25,0.00,,---,0.00,VWS V14.00,2013-03-03 21:10:00,
2013-03-03 14:15:00,64.8,28.2,29.60,SE,136,0.0,4.0,25,0.00,,---,0.00,VWS V14.00,2013-03-03 21:15:00,
2013-03-03 14:20:00,64.2,25.7,29.59,South,176,0.0,4.0,23,0.00,,---,0.00,VWS V14.00,2013-03-03 21:20:00,
2013-03-03 14:25:00,64.7,29.0,29.59,SE,142,2.0,3.0,26,0.00,,---,0.00,VWS V14.00,2013-03-03 21:25:00,
2013-03-03 14:30:00,63.7,25.2,29.59,ENE,61,3.0,3.0,23,0.00,,---,0.00,VWS V14.00,2013-03-03 21:30:00,
2013-03-03 14:35:00,62.9,25.6,29.61,ENE,58,0.0,3.0,24,0.00,,---,0.00,VWS V14.00,2013-03-03 21:35:00,
2013-03-03 14:40:00,62.8,26.5,29.61,ESE,121,1.0,4.0,25,0.00,,---,0.00,VWS V14.00,2013-03-03 21:40:00,
2013-03-03 14:45:00,62.3,25.1,29.61,ENE,74,1.0,1.0,24,0.00,,---,0.00,VWS V14.00,2013-03-03 21:45:00,
2013-03-03 14:50:00,62.3,25.1,29.61,East,99,0.0,0.0,24,0.00,,---,0.00,VWS V14.00,2013-03-03 21:50:00,
2013-03-03 14:55:00,63.2,27.8,29.61,ESE,109,1.0,1.0,26,0.00,,---,0.00,VWS V14.00,2013-03-03 21:55:00,
2013-03-03 15:00:00,63.3,27.9,29.61,ESE,109,0.0,3.0,26,0.00,,---,0.00,VWS V14.00,2013-03-03 22:00:00,
2013-03-03 15:05:00,64.0,28.5,29.59,ESE,109,0.0,0.0,26,0.00,,---,0.00,VWS V14.00,2013-03-03 22:05:00,
2013-03-03 15:11:00,63.3,25.9,29.59,ESE,109,0.0,0.0,24,0.00,,---,0.00,VWS V14.00,2013-03-03 22:11:00,
2013-03-03 15:16:00,64.1,29.5,29.59,SE,130,2.0,4.0,27,0.00,,---,0.00,VWS V14.00,2013-03-03 22:16:00,
2013-03-03 15:21:00,64.3,26.8,29.59,SE,126,2.0,2.0,24,0.00,,---,0.00,VWS V14.00,2013-03-03 22:21:00,
2013-03-03 15:26:00,63.7,26.3,29.59,SE,129,0.0,1.0,24,0.00,,---,0.00,VWS V14.00,2013-03-03 22:26:00,
2013-03-03 15:31:00,63.4,25.0,29.60,ESE,119,0.0,0.0,23,0.00,,---,0.00,VWS V14.00,2013-03-03 22:31:00,
2013-03-03 15:36:00,63.9,26.4,29.59,North,351,0.0,2.0,24,0.00,,---,0.00,VWS V14.00,2013-03-03 22:36:00,
2013-03-03 15:41:00,63.4,26.0,29.60,ENE,75,0.0,1.0,24,0.00,,---,0.00,VWS V14.00,2013-03-03 22:41:00,
2013-03-03 15:46:00,62.4,27.1,29.60,ENE,74,0.0,3.0,26,0.00,,---,0.00,VWS V14.00,2013-03-03 22:46:00,
2013-03-03 15:51:00,62.3,25.1,29.60,ENE,74,3.0,3.0,24,0.00,,---,0.00,VWS V14.00,2013-03-03 22:51:00,
2013-03-03 15:57:00,62.4,26.1,29.60,ENE,78,0.0,2.0,25,0.00,,---,0.00,VWS V14.00,2013-03-03 22:57:00,
2013-03-03 16:02:00,62.3,26.1,29.60,ENE,78,0.0,1.0,25,0.00,,---,0.00,VWS V14.00,2013-03-03 23:02:00,
2013-03-03 16:07:00,61.9,25.7,29.60,ENE,75,1.0,2.0,25,0.00,,---,0.00,VWS V14.00,2013-03-03 23:07:00,
2013-03-03 16:12:00,61.2,27.0,29.62,ENE,78,0.0,2.0,27,0.00,,---,0.00,VWS V14.00,2013-03-03 23:12:00,
2013-03-03 16:17:00,60.7,26.5,29.62,ENE,78,0.0,0.0,27,0.00,,---,0.00,VWS V14.00,2013-03-03 23:17:00,
2013-03-03 16:22:00,60.3,26.2,29.62,North,355,0.0,2.0,27,0.00,,---,0.00,VWS V14.00,2013-03-03 23:22:00,
2013-03-03 16:27:00,60.2,27.0,29.62,NW,315,0.0,4.0,28,0.00,,---,0.00,VWS V14.00,2013-03-03 23:27:00,
2013-03-03 16:32:00,59.7,26.6,29.62,NE,39,0.0,5.0,28,0.00,,---,0.00,VWS V14.00,2013-03-03 23:32:00,
2013-03-03 16:37:00,59.5,26.4,29.62,NNE,23,0.0,0.0,28,0.00,,---,0.00,VWS V14.00,2013-03-03 23:37:00,
2013-03-03 16:42:00,59.3,27.1,29.63,North,355,2.0,2.0,29,0.00,,---,0.00,VWS V14.00,2013-03-03 23:42:00,
2013-03-03 16:47:00,59.2,26.1,29.63,NNE,26,1.0,5.0,28,0.00,,---,0.00,VWS V14.00,2013-03-03 23:47:00,
2013-03-03 16:52:00,59.0,26.0,29.63,North,360,0.0,1.0,28,0.00,,---,0.00,VWS V14.00,2013-03-03 23:52:00,
2013-03-03 16:57:00,59.0,26.0,29.63,North,360,0.0,0.0,28,0.00,,---,0.00,VWS V14.00,2013-03-03 23:57:00,
2013-03-03 17:02:00,59.0,26.8,29.62,North,360,0.0,2.0,29,0.00,,---,0.00,VWS V14.00,2013-03-04 00:02:00,
2013-03-03 17:07:00,58.4,26.3,29.59,East,89,0.0,2.0,29,0.00,,---,0.00,VWS V14.00,2013-03-04 00:07:00,
2013-03-03 17:13:00,58.1,26.9,29.61,East,91,0.0,1.0,30,0.00,,---,0.00,VWS V14.00,2013-03-04 00:13:00,
2013-03-03 17:18:00,58.0,26.8,29.61,East,91,0.0,0.0,30,0.00,,---,0.00,VWS V14.00,2013-03-04 00:18:00,
2013-03-03 17:23:00,57.7,26.5,29.61,East,91,0.0,0.0,30,0.00,,---,0.00,VWS V14.00,2013-03-04 00:23:00,
2013-03-03 17:28:00,57.4,26.2,29.62,East,91,0.0,0.0,30,0.00,,---,0.00,VWS V14.00,2013-03-04 00:28:00,
2013-03-03 17:33:00,56.8,25.7,29.62,WSW,238,2.0,6.0,30,0.00,,---,0.00,VWS V14.00,2013-03-04 00:33:00,
2013-03-03 17:38:00,56.5,24.6,29.62,SE,145,1.0,3.0,29,0.00,,---,0.00,VWS V14.00,2013-03-04 00:38:00,
2013-03-03 17:43:00,56.3,24.5,29.64,NE,34,0.0,5.0,29,0.00,,---,0.00,VWS V14.00,2013-03-04 00:43:00,
2013-03-03 17:48:00,56.3,24.5,29.65,NE,37,0.0,0.0,29,0.00,,---,0.00,VWS V14.00,2013-03-04 00:48:00,
2013-03-03 17:53:00,55.8,25.6,29.65,NNE,29,0.0,0.0,31,0.00,,---,0.00,VWS V14.00,2013-03-04 00:53:00,
2013-03-03 17:58:00,55.4,25.3,29.65,South,170,0.0,0.0,31,0.00,,---,0.00,VWS V14.00,2013-03-04 00:58:00,
2013-03-03 18:03:00,55.0,24.9,29.64,North,360,0.0,4.0,31,0.00,,---,0.00,VWS V14.00,2013-03-04 01:03:00,
2013-03-03 18:08:00,54.6,25.4,29.64,SSE,168,0.0,2.0,32,0.00,,---,0.00,VWS V14.00,2013-03-04 01:08:00,
2013-03-03 18:13:00,54.6,24.6,29.65,NNE,24,1.0,4.0,31,0.00,,---,0.00,VWS V14.00,2013-03-04 01:13:00,
2013-03-03 18:18:00,54.5,25.3,29.66,ENE,69,0.0,1.0,32,0.00,,---,0.00,VWS V14.00,2013-03-04 01:18:00,
2013-03-03 18:23:00,54.3,24.3,29.67,South,171,0.0,5.0,31,0.00,,---,0.00,VWS V14.00,2013-03-04 01:23:00,
2013-03-03 18:28:00,54.4,24.4,29.67,WSW,254,1.0,6.0,31,0.00,,---,0.00,VWS V14.00,2013-03-04 01:28:00,
2013-03-03 18:33:00,54.4,25.2,29.67,SW,227,0.0,5.0,32,0.00,,---,0.00,VWS V14.00,2013-03-04 01:33:00,
2013-03-03 18:38:00,54.2,25.0,29.67,SSE,164,0.0,2.0,32,0.00,,---,0.00,VWS V14.00,2013-03-04 01:38:00,
2013-03-03 18:43:00,54.2,25.0,29.67,SSW,204,3.0,4.0,32,0.00,,---,0.00,VWS V14.00,2013-03-04 01:43:00,
2013-03-03 18:48:00,54.1,24.9,29.67,SSW,207,0.0,3.0,32,0.00,,---,0.00,VWS V14.00,2013-03-04 01:48:00,
2013-03-03 18:53:00,53.9,25.5,29.68,SSW,203,1.0,1.0,33,0.00,,---,0.00,VWS V14.00,2013-03-04 01:53:00,
2013-03-03 18:58:00,53.5,25.1,29.68,SW,214,0.0,1.0,33,0.00,,---,0.00,VWS V14.00,2013-03-04 01:58:00,
2013-03-03 19:03:00,53.2,25.6,29.66,NW,304,0.0,0.0,34,0.00,,---,0.00,VWS V14.00,2013-03-04 02:03:00,
2013-03-03 19:08:00,52.7,25.1,29.66,NW,304,0.0,1.0,34,0.00,,---,0.00,VWS V14.00,2013-03-04 02:08:00,
2013-03-03 19:14:00,52.1,25.3,29.66,NW,304,0.0,0.0,35,0.00,,---,0.00,VWS V14.00,2013-03-04 02:14:00,
2013-03-03 19:20:00,51.5,25.5,29.66,NW,304,0.0,0.0,36,0.00,,---,0.00,VWS V14.00,2013-03-04 02:20:00,
2013-03-03 19:26:00,51.5,25.5,29.67,WNW,303,0.0,0.0,36,0.00,,---,0.00,VWS V14.00,2013-03-04 02:26:00,
2013-03-03 19:31:00,50.8,25.5,29.68,NW,304,0.0,0.0,37,0.00,,---,0.00,VWS V14.00,2013-03-04 02:31:00,
2013-03-03 19:37:00,50.2,25.0,29.68,NW,304,0.0,0.0,37,0.00,,---,0.00,VWS V14.00,2013-03-04 02:37:00,
2013-03-03 19:43:00,49.8,25.2,29.68,NW,304,0.0,0.0,38,0.00,,---,0.00,VWS V14.00,2013-03-04 02:43:00,
2013-03-03 19:48:00,49.6,25.0,29.68,NNW,346,0.0,0.0,38,0.00,,---,0.00,VWS V14.00,2013-03-04 02:48:00,
2013-03-03 19:53:00,49.8,25.9,29.68,NNW,346,0.0,0.0,39,0.00,,---,0.00,VWS V14.00,2013-03-04 02:53:00,
2013-03-03 19:58:00,49.5,25.6,29.67,NNW,346,0.0,0.0,39,0.00,,---,0.00,VWS V14.00,2013-03-04 02:58:00,
2013-03-03 20:04:00,49.2,25.9,29.66,NNW,346,0.0,0.0,40,0.00,,---,0.00,VWS V14.00,2013-03-04 03:04:00,
2013-03-03 20:09:00,49.3,26.0,29.66,South,182,0.0,0.0,40,0.00,,---,0.00,VWS V14.00,2013-03-04 03:09:00,
2013-03-03 20:15:00,49.2,26.5,29.66,South,182,1.0,1.0,41,0.00,,---,0.00,VWS V14.00,2013-03-04 03:15:00,
2013-03-03 20:20:00,49.1,25.8,29.66,South,182,1.0,1.0,40,0.00,,---,0.00,VWS V14.00,2013-03-04 03:20:00,
2013-03-03 20:26:00,49.1,25.8,29.66,ENE,69,0.0,2.0,40,0.00,,---,0.00,VWS V14.00,2013-03-04 03:26:00,
2013-03-03 20:32:00,49.5,25.6,29.66,East,88,3.0,3.0,39,0.00,,---,0.00,VWS V14.00,2013-03-04 03:32:00,
2013-03-03 20:37:00,49.9,26.0,29.66,SSE,161,0.0,4.0,39,0.00,,---,0.00,VWS V14.00,2013-03-04 03:37:00,
2013-03-03 20:42:00,50.2,25.6,29.65,WSW,253,4.0,4.0,38,0.00,,---,0.00,VWS V14.00,2013-03-04 03:42:00,
2013-03-03 20:48:00,50.5,25.9,29.64,SW,216,0.0,1.0,38,0.00,,---,0.00,VWS V14.00,2013-03-04 03:48:00,
2013-03-03 20:53:00,50.8,25.5,29.64,South,173,4.0,6.0,37,0.00,,---,0.00,VWS V14.00,2013-03-04 03:53:00,
2013-03-03 20:58:00,51.0,25.7,29.64,SW,225,0.0,3.0,37,0.00,,---,0.00,VWS V14.00,2013-03-04 03:58:00,
2013-03-03 21:03:00,51.2,25.8,29.62,SW,226,1.0,10.0,37,0.00,,---,0.00,VWS V14.00,2013-03-04 04:03:00,
2013-03-03 21:09:00,51.3,25.9,29.61,SW,214,2.0,5.0,37,0.00,,---,0.00,VWS V14.00,2013-03-04 04:09:00,
2013-03-03 21:14:00,51.3,25.9,29.61,SW,217,2.0,6.0,37,0.00,,---,0.00,VWS V14.00,2013-03-04 04:14:00,
2013-03-03 21:19:00,51.2,26.5,29.61,SE,144,0.0,1.0,38,0.00,,---,0.00,VWS V14.00,2013-03-04 04:19:00,
2013-03-03 21:24:00,51.0,25.7,29.61,WSW,256,3.0,7.0,37,0.00,,---,0.00,VWS V14.00,2013-03-04 04:24:00,
2013-03-03 21:29:00,51.0,25.7,29.61,SW,230,0.0,1.0,37,0.00,,---,0.00,VWS V14.00,2013-03-04 04:29:00,
2013-03-03 21:34:00,50.8,26.1,29.61,SW,230,3.0,3.0,38,0.00,,---,0.00,VWS V14.00,2013-03-04 04:34:00,
2013-03-03 21:39:00,50.6,26.0,29.61,SW,234,0.0,0.0,38,0.00,,---,0.00,VWS V14.00,2013-03-04 04:39:00,
2013-03-03 21:44:00,50.4,25.8,29.61,SW,236,0.0,1.0,38,0.00,,---,0.00,VWS V14.00,2013-03-04 04:44:00,
2013-03-03 21:49:00,50.3,25.7,29.62,SW,234,0.0,2.0,38,0.00,,---,0.00,VWS V14.00,2013-03-04 04:49:00,
2013-03-03 21:54:00,50.2,26.2,29.62,SW,234,0.0,1.0,39,0.00,,---,0.00,VWS V14.00,2013-03-04 04:54:00,
2013-03-03 21:59:00,50.3,26.3,29.63,SW,216,0.0,6.0,39,0.00,,---,0.00,VWS V14.00,2013-03-04 04:59:00,
2013-03-03 22:00:00,50.3,25.7,29.63,SSW,213,5.0,6.0,38,0.00,,---,0.00,VWS V14.00,2013-03-04 05:00:00,
2013-03-03 22:01:00,50.3,26.3,29.63,SSW,196,6.0,9.0,39,0.00,,---,0.00,VWS V14.00,2013-03-04 05:01:00,
2013-03-03 22:06:00,50.4,25.8,29.59,SW,226,0.0,4.0,38,0.00,,---,0.00,VWS V14.00,2013-03-04 05:06:00,
2013-03-03 22:11:00,50.4,25.8,29.59,SW,226,0.0,4.0,38,0.00,,---,0.00,VWS V14.00,2013-03-04 05:11:00,
2013-03-03 22:17:00,50.2,25.6,29.60,SSW,212,0.0,4.0,38,0.00,,---,0.00,VWS V14.00,2013-03-04 05:17:00,
2013-03-03 22:21:00,49.9,26.0,29.60,SSW,211,0.0,1.0,39,0.00,,---,0.00,VWS V14.00,2013-03-04 05:21:00,
2013-03-03 22:26:00,49.5,26.2,29.60,SSW,211,1.0,1.0,40,0.00,,---,0.00,VWS V14.00,2013-03-04 05:26:00,
2013-03-03 22:31:00,49.0,25.8,29.59,SSW,211,0.0,0.0,40,0.00,,---,0.00,VWS V14.00,2013-03-04 05:31:00,
2013-03-03 22:36:00,48.6,25.4,29.59,WSW,252,0.0,2.0,40,0.00,,---,0.00,VWS V14.00,2013-03-04 05:36:00,
2013-03-03 22:41:00,48.3,25.7,29.60,WSW,252,0.0,0.0,41,0.00,,---,0.00,VWS V14.00,2013-03-04 05:41:00,
2013-03-03 22:46:00,48.0,25.4,29.60,WSW,252,0.0,0.0,41,0.00,,---,0.00,VWS V14.00,2013-03-04 05:46:00,
2013-03-03 22:51:00,47.8,25.3,29.60,WSW,252,0.0,0.0,41,0.00,,---,0.00,VWS V14.00,2013-03-04 05:51:00,
2013-03-03 22:56:00,47.5,25.6,29.60,WSW,252,0.0,1.0,42,0.00,,---,0.00,VWS V14.00,2013-03-04 05:56:00,
2013-03-03 23:01:00,47.2,25.3,29.60,WSW,252,0.0,0.0,42,0.00,,---,0.00,VWS V14.00,2013-03-04 06:01:00,
2013-03-03 23:06:00,47.1,25.2,29.60,SSW,207,0.0,0.0,42,0.00,,---,0.00,VWS V14.00,2013-03-04 06:06:00,
2013-03-03 23:11:00,47.0,25.1,29.60,SSW,207,1.0,1.0,42,0.00,,---,0.00,VWS V14.00,2013-03-04 06:11:00,
2013-03-03 23:16:00,47.0,25.1,29.60,SSW,208,0.0,1.0,42,0.00,,---,0.00,VWS V14.00,2013-03-04 06:16:00,
2013-03-03 23:21:00,46.9,25.0,29.60,SW,215,0.0,1.0,42,0.00,,---,0.00,VWS V14.00,2013-03-04 06:21:00,
2013-03-03 23:26:00,47.0,25.1,29.60,SSW,211,0.0,1.0,42,0.00,,---,0.00,VWS V14.00,2013-03-04 06:26:00,
2013-03-03 23:31:00,47.1,25.2,29.60,SSW,210,0.0,0.0,42,0.00,,---,0.00,VWS V14.00,2013-03-04 06:31:00,
2013-03-03 23:36:00,47.0,25.1,29.60,SSW,210,0.0,0.0,42,0.00,,---,0.00,VWS V14.00,2013-03-04 06:36:00,
2013-03-03 23:41:00,46.9,25.6,29.60,SSW,210,0.0,0.0,43,0.00,,---,0.00,VWS V14.00,2013-03-04 06:41:00,
2013-03-03 23:46:00,46.4,25.7,29.60,SSW,210,0.0,0.0,44,0.00,,---,0.00,VWS V14.00,2013-03-04 06:46:00,
2013-03-03 23:51:00,46.0,25.3,29.60,SSW,210,0.0,0.0,44,0.00,,---,0.00,VWS V14.00,2013-03-04 06:51:00,
2013-03-03 23:56:00,45.7,25.0,29.61,SSW,210,0.0,0.0,44,0.00,,---,0.00,VWS V14.00,2013-03-04 06:56:00,